Year,Month,Day,Hour,Minute,Value (Times are PST for temperature in C)
2009,05,28,09,52,15.60
2009,05,28,09,53,15.80
2009,05,28,09,54,15.90
2009,05,28,09,55,16.00
2009,05,28,09,56,16.10
2009,05,28,09,57,16.10
2009,05,28,09,58,16.10
2009,05,28,09,59,16.20
2009,05,28,10,00,16.20
2009,05,28,10,04,16.10
2009,05,28,10,05,16.10
2009,05,28,10,06,16.00
2009,05,28,10,07,15.90
2009,05,28,10,08,15.80
2009,05,28,10,09,15.80
2009,05,28,10,10,15.70
2009,05,28,10,11,15.70
2009,05,28,10,12,15.60
2009,05,28,10,13,15.60
2009,05,28,10,14,15.60
2009,05,28,10,15,15.60
2009,05,28,10,16,15.60
2009,05,28,10,17,15.60
2009,05,28,10,18,15.60
2009,05,28,10,19,15.70
2009,05,28,10,20,15.80
2009,05,28,10,21,15.80
2009,05,28,10,22,15.90
2009,05,28,10,23,16.00
2009,05,28,10,24,16.10
2009,05,28,10,25,16.20
2009,05,28,10,26,16.30
2009,05,28,10,27,16.30
2009,05,28,10,28,16.30
2009,05,28,10,29,16.30
2009,05,28,10,30,16.30
2009,05,28,10,31,16.30
2009,05,28,10,32,16.20
2009,05,28,10,33,16.20
2009,05,28,10,34,16.10
2009,05,28,10,35,16.00
2009,05,28,10,36,15.90
2009,05,28,10,37,15.80
2009,05,28,10,38,15.80
2009,05,28,10,39,15.80
2009,05,28,10,40,16.00
2009,05,28,10,41,16.10
2009,05,28,10,42,16.20
2009,05,28,10,43,16.30
2009,05,28,10,44,16.30
2009,05,28,10,45,16.30
2009,05,28,10,46,16.30
2009,05,28,10,47,16.30
2009,05,28,10,48,16.30
2009,05,28,10,49,16.30
2009,05,28,10,50,16.30
2009,05,28,10,51,16.20
2009,05,28,10,52,16.10
2009,05,28,10,53,16.00
2009,05,28,10,54,16.00
2009,05,28,10,55,16.10
2009,05,28,10,56,16.10
2009,05,28,10,57,16.10
2009,05,28,10,58,16.20
2009,05,28,10,59,16.30
2009,05,28,11,00,16.40
2009,05,28,11,01,16.50
2009,05,28,11,02,16.50
2009,05,28,11,03,16.40
2009,05,28,11,04,16.40
2009,05,28,11,05,16.30
2009,05,28,11,06,16.30
2009,05,28,11,07,16.30
2009,05,28,11,08,16.40
2009,05,28,11,09,16.60
2009,05,28,11,10,16.60
2009,05,28,11,11,16.60
2009,05,28,11,12,16.60
2009,05,28,11,13,16.60
2009,05,28,11,14,16.60
2009,05,28,11,15,16.60
2009,05,28,11,16,16.60
2009,05,28,11,17,16.70
2009,05,28,11,18,16.70
2009,05,28,11,19,16.80
2009,05,28,11,20,16.80
2009,05,28,11,21,16.90
2009,05,28,11,22,17.00
2009,05,28,11,23,16.90
2009,05,28,11,24,16.90
2009,05,28,11,25,16.80
2009,05,28,11,26,16.80
2009,05,28,11,27,16.80
2009,05,28,11,28,16.80
2009,05,28,11,29,16.80
2009,05,28,11,30,17.00
2009,05,28,11,31,17.10
2009,05,28,11,32,17.30
2009,05,28,11,33,17.40
2009,05,28,11,34,17.50
2009,05,28,11,35,17.60
2009,05,28,11,36,17.60
2009,05,28,11,37,17.60
2009,05,28,11,38,17.60
2009,05,28,11,39,17.50
2009,05,28,11,40,17.50
2009,05,28,11,41,17.40
2009,05,28,11,42,17.40
2009,05,28,11,43,17.40
2009,05,28,11,44,17.40
2009,05,28,11,45,17.40
2009,05,28,11,46,17.30
2009,05,28,11,47,17.30
2009,05,28,11,48,17.30
2009,05,28,11,49,17.30
2009,05,28,11,50,17.30
2009,05,28,11,51,17.20
2009,05,28,11,52,17.10
2009,05,28,11,53,17.10
2009,05,28,11,54,17.10
2009,05,28,11,55,17.10
2009,05,28,11,56,17.10
2009,05,28,11,57,17.20
2009,05,28,11,58,17.20
2009,05,28,11,59,17.20
2009,05,28,12,00,17.20
2009,05,28,12,01,17.20
2009,05,28,12,02,17.20
2009,05,28,12,03,17.20
2009,05,28,12,04,17.30
2009,05,28,12,05,17.40
2009,05,28,12,06,17.50
2009,05,28,12,07,17.60
2009,05,28,12,08,17.70
2009,05,28,12,09,17.70
2009,05,28,12,10,17.60
2009,05,28,12,11,17.50
2009,05,28,12,12,17.40
2009,05,28,12,13,17.50
2009,05,28,12,14,17.50
2009,05,28,12,15,17.50
2009,05,28,12,16,17.60
2009,05,28,12,17,17.60
2009,05,28,12,18,17.60
2009,05,28,12,19,17.60
2009,05,28,12,20,17.80
2009,05,28,12,21,17.90
2009,05,28,12,22,18.00
2009,05,28,12,23,18.10
2009,05,28,12,24,18.20
2009,05,28,12,25,18.20
2009,05,28,12,26,18.20
2009,05,28,12,27,18.30
2009,05,28,12,28,18.20
2009,05,28,12,29,18.10
2009,05,28,12,30,18.00
2009,05,28,12,31,17.90
2009,05,28,12,32,17.80
2009,05,28,12,33,17.80
2009,05,28,12,34,17.80
2009,05,28,12,35,17.80
2009,05,28,12,36,17.80
2009,05,28,12,37,17.80
2009,05,28,12,38,17.90
2009,05,28,12,39,18.00
2009,05,28,12,40,18.10
2009,05,28,12,41,18.20
2009,05,28,12,42,18.30
2009,05,28,12,43,18.30
2009,05,28,12,44,18.20
2009,05,28,12,45,18.20
2009,05,28,12,46,18.20
2009,05,28,12,47,18.20
2009,05,28,12,48,18.20
2009,05,28,12,49,18.20
2009,05,28,12,50,18.30
2009,05,28,12,51,18.40
2009,05,28,12,52,18.40
2009,05,28,12,53,18.50
2009,05,28,12,54,18.60
2009,05,28,12,55,18.60
2009,05,28,12,56,18.70
2009,05,28,12,57,18.70
2009,05,28,12,58,18.60
2009,05,28,12,59,18.50
2009,05,28,13,00,18.50
2009,05,28,13,01,18.40
2009,05,28,13,02,18.40
2009,05,28,13,03,18.30
2009,05,28,13,04,18.30
2009,05,28,13,05,18.20
2009,05,28,13,06,18.10
2009,05,28,13,07,18.10
2009,05,28,13,08,18.10
2009,05,28,13,09,18.10
2009,05,28,13,10,18.20
2009,05,28,13,11,18.20
2009,05,28,13,12,18.20
2009,05,28,13,13,18.30
2009,05,28,13,14,18.40
2009,05,28,13,15,18.50
2009,05,28,13,16,18.50
2009,05,28,13,17,18.40
2009,05,28,13,18,18.40
2009,05,28,13,19,18.50
2009,05,28,13,20,18.60
2009,05,28,13,21,18.70
2009,05,28,13,22,18.80
2009,05,28,13,23,18.90
2009,05,28,13,24,19.00
2009,05,28,13,25,19.10
2009,05,28,13,26,19.10
2009,05,28,13,27,19.10
2009,05,28,13,28,19.00
2009,05,28,13,29,19.00
2009,05,28,13,30,19.00
2009,05,28,13,31,19.10
2009,05,28,13,32,19.10
2009,05,28,13,33,19.20
2009,05,28,13,34,19.30
2009,05,28,13,35,19.30
2009,05,28,13,36,19.10
2009,05,28,13,37,19.00
2009,05,28,13,38,18.90
2009,05,28,13,39,18.80
2009,05,28,13,40,18.70
2009,05,28,13,41,18.70
2009,05,28,13,42,18.70
2009,05,28,13,43,18.80
2009,05,28,13,44,18.80
2009,05,28,13,45,18.90
2009,05,28,13,46,18.90
2009,05,28,13,47,18.90
2009,05,28,13,48,18.90
2009,05,28,13,49,18.90
2009,05,28,13,50,18.90
2009,05,28,13,51,18.90
2009,05,28,13,52,18.90
2009,05,28,13,53,18.80
2009,05,28,13,54,18.80
2009,05,28,13,55,18.80
2009,05,28,13,56,18.80
2009,05,28,13,57,18.80
2009,05,28,13,58,18.80
2009,05,28,13,59,18.90
2009,05,28,14,00,18.90
2009,05,28,14,01,18.90
2009,05,28,14,02,19.00
2009,05,28,14,03,19.00
2009,05,28,14,04,19.00
2009,05,28,14,05,19.00
2009,05,28,14,06,19.00
2009,05,28,14,07,19.00
2009,05,28,14,08,19.00
2009,05,28,14,09,19.10
2009,05,28,14,10,19.20
2009,05,28,14,11,19.20
2009,05,28,14,12,19.20
2009,05,28,14,13,19.20
2009,05,28,14,14,19.10
2009,05,28,14,15,19.10
2009,05,28,14,16,19.10
2009,05,28,14,17,19.10
2009,05,28,14,18,19.10
2009,05,28,14,19,19.10
2009,05,28,14,20,19.20
2009,05,28,14,21,19.10
2009,05,28,14,22,19.10
2009,05,28,14,23,19.10
2009,05,28,14,24,19.10
2009,05,28,14,25,19.20
2009,05,28,14,26,19.20
2009,05,28,14,27,19.30
2009,05,28,14,28,19.40
2009,05,28,14,29,19.40
2009,05,28,14,30,19.50
2009,05,28,14,31,19.60
2009,05,28,14,32,19.70
2009,05,28,14,33,19.60
2009,05,28,14,34,19.50
2009,05,28,14,35,19.40
2009,05,28,14,36,19.40
2009,05,28,14,37,19.40
2009,05,28,14,38,19.50
2009,05,28,14,39,19.50
2009,05,28,14,40,19.50
2009,05,28,14,41,19.60
2009,05,28,14,42,19.70
2009,05,28,14,43,19.80
2009,05,28,14,44,19.90
2009,05,28,14,45,20.00
2009,05,28,14,46,20.10
2009,05,28,14,47,20.20
2009,05,28,14,48,20.20
2009,05,28,14,49,20.20
2009,05,28,14,50,20.20
2009,05,28,14,51,20.10
2009,05,28,14,52,20.10
2009,05,28,14,53,20.00
2009,05,28,14,54,20.00
2009,05,28,14,55,20.10
2009,05,28,14,56,20.00
2009,05,28,14,57,20.00
2009,05,28,14,58,19.90
2009,05,28,14,59,19.90
2009,05,28,15,00,19.80
2009,05,28,15,01,19.90
2009,05,28,15,02,20.00
2009,05,28,15,03,20.00
2009,05,28,15,04,20.10
2009,05,28,15,05,20.10
2009,05,28,15,06,20.10
2009,05,28,15,07,20.10
2009,05,28,15,08,20.10
2009,05,28,15,09,20.10
2009,05,28,15,10,20.20
2009,05,28,15,11,20.30
2009,05,28,15,12,20.30
2009,05,28,15,13,20.30
2009,05,28,15,14,20.30
2009,05,28,15,15,20.20
2009,05,28,15,16,20.20
2009,05,28,15,17,20.10
2009,05,28,15,18,20.10
2009,05,28,15,19,20.10
2009,05,28,15,20,20.10
2009,05,28,15,21,20.20
2009,05,28,15,22,20.20
2009,05,28,15,23,20.10
2009,05,28,15,24,20.10
2009,05,28,15,25,20.10
2009,05,28,15,26,20.00
2009,05,28,15,27,20.00
2009,05,28,15,28,20.00
2009,05,28,15,29,20.00
2009,05,28,15,30,20.00
2009,05,28,15,31,19.90
2009,05,28,15,32,19.90
2009,05,28,15,33,19.90
2009,05,28,15,34,20.00
2009,05,28,15,35,20.00
2009,05,28,15,36,20.00
2009,05,28,15,37,20.10
2009,05,28,15,38,20.10
2009,05,28,15,39,20.10
2009,05,28,15,40,20.20
2009,05,28,15,41,20.30
2009,05,28,15,42,20.40
2009,05,28,15,43,20.50
2009,05,28,15,44,20.60
2009,05,28,15,45,20.70
2009,05,28,15,46,20.80
2009,05,28,15,47,20.90
2009,05,28,15,48,21.00
2009,05,28,15,49,21.10
2009,05,28,15,50,21.20
2009,05,28,15,51,21.20
2009,05,28,15,52,21.10
2009,05,28,15,53,21.00
2009,05,28,15,54,20.90
2009,05,28,15,55,20.80
2009,05,28,15,56,20.70
2009,05,28,15,57,20.70
2009,05,28,15,58,20.70
2009,05,28,15,59,20.70
2009,05,28,16,00,20.70
2009,05,28,16,01,20.70
2009,05,28,16,02,20.70
2009,05,28,16,03,20.80
2009,05,28,16,04,20.80
2009,05,28,16,05,20.90
2009,05,28,16,06,20.90
2009,05,28,16,07,20.90
2009,05,28,16,08,20.80
2009,05,28,16,09,20.80
2009,05,28,16,10,20.80
2009,05,28,16,11,20.80
2009,05,28,16,12,20.80
2009,05,28,16,13,20.80
2009,05,28,16,14,20.80
2009,05,28,16,15,20.80
2009,05,28,16,16,20.80
2009,05,28,16,17,20.80
2009,05,28,16,18,20.90
2009,05,28,16,19,20.90
2009,05,28,16,20,21.00
2009,05,28,16,21,21.10
2009,05,28,16,22,21.10
2009,05,28,16,23,21.10
2009,05,28,16,24,21.10
2009,05,28,16,25,21.10
2009,05,28,16,26,21.10
2009,05,28,16,27,21.20
2009,05,28,16,28,21.20
2009,05,28,16,29,21.20
2009,05,28,16,30,21.10
2009,05,28,16,31,21.10
2009,05,28,16,32,21.20
2009,05,28,16,33,21.30
2009,05,28,16,34,21.30
2009,05,28,16,35,21.30
2009,05,28,16,36,21.30
2009,05,28,16,37,21.30
2009,05,28,16,38,21.30
2009,05,28,16,39,21.40
2009,05,28,16,40,21.40
2009,05,28,16,41,21.40
2009,05,28,16,42,21.40
2009,05,28,16,43,21.40
2009,05,28,16,44,21.50
2009,05,28,16,45,21.50
2009,05,28,16,46,21.60
2009,05,28,16,47,21.60
2009,05,28,16,48,21.70
2009,05,28,16,49,21.70
2009,05,28,16,50,21.70
2009,05,28,16,51,21.70
2009,05,28,16,52,21.70
2009,05,28,16,53,21.80
2009,05,28,16,54,21.80
2009,05,28,16,55,21.80
2009,05,28,16,56,21.80
2009,05,28,16,57,21.80
2009,05,28,16,58,21.80
2009,05,28,16,59,21.80
2009,05,28,17,00,21.80
2009,05,28,17,01,21.80
2009,05,28,17,02,21.80
2009,05,28,17,03,21.80
2009,05,28,17,04,21.80
2009,05,28,17,05,21.80
2009,05,28,17,06,21.80
2009,05,28,17,07,21.80
2009,05,28,17,08,21.80
2009,05,28,17,09,21.80
2009,05,28,17,10,21.80
2009,05,28,17,11,21.80
2009,05,28,17,12,21.80
2009,05,28,17,13,21.80
2009,05,28,17,14,21.80
2009,05,28,17,15,21.80
2009,05,28,17,16,21.80
2009,05,28,17,17,21.70
2009,05,28,17,18,21.70
2009,05,28,17,19,21.70
2009,05,28,17,20,21.60
2009,05,28,17,21,21.50
2009,05,28,17,22,21.50
2009,05,28,17,23,21.40
2009,05,28,17,24,21.40
2009,05,28,17,25,21.40
2009,05,28,17,26,21.40
2009,05,28,17,27,21.40
2009,05,28,17,28,21.40
2009,05,28,17,29,21.40
2009,05,28,17,30,21.40
2009,05,28,17,31,21.40
2009,05,28,17,32,21.40
2009,05,28,17,33,21.40
2009,05,28,17,34,21.30
2009,05,28,17,35,21.40
2009,05,28,17,36,21.40
2009,05,28,17,37,21.40
2009,05,28,17,38,21.50
2009,05,28,17,39,21.60
2009,05,28,17,40,21.60
2009,05,28,17,41,21.70
2009,05,28,17,42,21.70
2009,05,28,17,43,21.80
2009,05,28,17,44,21.80
2009,05,28,17,45,21.80
2009,05,28,17,46,21.80
2009,05,28,17,47,21.80
2009,05,28,17,48,21.80
2009,05,28,17,49,21.80
2009,05,28,17,50,21.70
2009,05,28,17,51,21.70
2009,05,28,17,52,21.70
2009,05,28,17,53,21.70
2009,05,28,17,54,21.70
2009,05,28,17,55,21.70
2009,05,28,17,56,21.70
2009,05,28,17,57,21.60
2009,05,28,17,58,21.60
2009,05,28,17,59,21.60
2009,05,28,18,00,21.60
2009,05,28,18,01,21.60
2009,05,28,18,02,21.60
2009,05,28,18,03,21.60
2009,05,28,18,04,21.60
2009,05,28,18,05,21.70
2009,05,28,18,06,21.70
2009,05,28,18,07,21.70
2009,05,28,18,08,21.70
2009,05,28,18,09,21.80
2009,05,28,18,10,21.80
2009,05,28,18,11,21.80
2009,05,28,18,12,21.80
2009,05,28,18,13,21.80
2009,05,28,18,14,21.80
2009,05,28,18,15,21.80
2009,05,28,18,16,21.80
2009,05,28,18,17,21.80
2009,05,28,18,18,21.80
2009,05,28,18,19,21.80
2009,05,28,18,20,21.80
2009,05,28,18,21,21.80
2009,05,28,18,22,21.80
2009,05,28,18,23,21.70
2009,05,28,18,24,21.70
2009,05,28,18,25,21.70
2009,05,28,18,26,21.70
2009,05,28,18,27,21.70
2009,05,28,18,28,21.70
2009,05,28,18,29,21.70
2009,05,28,18,30,21.70
2009,05,28,18,31,21.70
2009,05,28,18,32,21.70
2009,05,28,18,33,21.80
2009,05,28,18,34,21.80
2009,05,28,18,35,21.80
2009,05,28,18,36,21.80
2009,05,28,18,37,21.80
2009,05,28,18,38,21.80
2009,05,28,18,39,21.80
2009,05,28,18,40,21.80
2009,05,28,18,41,21.80
2009,05,28,18,42,21.80
2009,05,28,18,43,21.80
2009,05,28,18,44,21.80
2009,05,28,18,45,21.80
2009,05,28,18,46,21.80
2009,05,28,18,47,21.80
2009,05,28,18,48,21.70
2009,05,28,18,49,21.70
2009,05,28,18,50,21.60
2009,05,28,18,51,21.60
2009,05,28,18,52,21.60
2009,05,28,18,53,21.50
2009,05,28,18,54,21.50
2009,05,28,18,55,21.50
2009,05,28,18,56,21.40
2009,05,28,18,57,21.40
2009,05,28,18,58,21.40
2009,05,28,18,59,21.40
2009,05,28,19,00,21.40
2009,05,28,19,01,21.40
2009,05,28,19,02,21.40
2009,05,28,19,03,21.40
2009,05,28,19,04,21.40
2009,05,28,19,05,21.30
2009,05,28,19,06,21.30
2009,05,28,19,07,21.30
2009,05,28,19,08,21.30
2009,05,28,19,09,21.30
2009,05,28,19,10,21.20
2009,05,28,19,11,21.20
2009,05,28,19,12,21.10
2009,05,28,19,13,21.10
2009,05,28,19,14,21.00
2009,05,28,19,15,21.00
2009,05,28,19,16,20.90
2009,05,28,19,17,20.90
2009,05,28,19,18,20.80
2009,05,28,19,19,20.80
2009,05,28,19,20,20.80
2009,05,28,19,21,20.70
2009,05,28,19,22,20.70
2009,05,28,19,23,20.60
2009,05,28,19,24,20.50
2009,05,28,19,25,20.50
2009,05,28,19,26,20.40
2009,05,28,19,27,20.40
2009,05,28,19,28,20.30
2009,05,28,19,29,20.20
2009,05,28,19,30,20.10
2009,05,28,19,31,20.10
2009,05,28,19,32,20.00
2009,05,28,19,33,19.90
2009,05,28,19,34,19.80
2009,05,28,19,35,19.80
2009,05,28,19,36,19.70
2009,05,28,19,37,19.70
2009,05,28,19,38,19.60
2009,05,28,19,39,19.60
2009,05,28,19,40,19.60
2009,05,28,19,41,19.50
2009,05,28,19,42,19.40
2009,05,28,19,43,19.40
2009,05,28,19,44,19.30
2009,05,28,19,45,19.30
2009,05,28,19,46,19.20
2009,05,28,19,47,19.20
2009,05,28,19,48,19.10
2009,05,28,19,49,19.10
2009,05,28,19,50,19.00
2009,05,28,19,51,18.90
2009,05,28,19,52,18.90
2009,05,28,19,53,18.80
2009,05,28,19,54,18.70
2009,05,28,19,55,18.70
2009,05,28,19,56,18.60
2009,05,28,19,57,18.50
2009,05,28,19,58,18.50
2009,05,28,19,59,18.40
2009,05,28,20,00,18.30
2009,05,28,20,01,18.30
2009,05,28,20,02,18.20
2009,05,28,20,03,18.20
2009,05,28,20,04,18.10
2009,05,28,20,05,18.10
2009,05,28,20,06,18.00
2009,05,28,20,07,17.90
2009,05,28,20,08,17.90
2009,05,28,20,09,17.80
2009,05,28,20,10,17.80
2009,05,28,20,11,17.70
2009,05,28,20,12,17.70
2009,05,28,20,13,17.60
2009,05,28,20,14,17.50
2009,05,28,20,15,17.40
2009,05,28,20,16,17.40
2009,05,28,20,17,17.30
2009,05,28,20,18,17.30
2009,05,28,20,19,17.20
2009,05,28,20,20,17.20
2009,05,28,20,21,17.10
2009,05,28,20,22,17.00
2009,05,28,20,23,17.00
2009,05,28,20,24,16.90
2009,05,28,20,25,16.80
2009,05,28,20,26,16.80
2009,05,28,20,27,16.70
2009,05,28,20,28,16.70
2009,05,28,20,29,16.60
2009,05,28,20,30,16.60
2009,05,28,20,31,16.50
2009,05,28,20,32,16.50
2009,05,28,20,33,16.40
2009,05,28,20,34,16.40
2009,05,28,20,35,16.40
2009,05,28,20,36,16.30
2009,05,28,20,37,16.30
2009,05,28,20,38,16.30
2009,05,28,20,39,16.30
2009,05,28,20,40,16.20
2009,05,28,20,41,16.20
2009,05,28,20,42,16.20
2009,05,28,20,43,16.10
2009,05,28,20,44,16.10
2009,05,28,20,45,16.10
2009,05,28,20,46,16.00
2009,05,28,20,47,16.00
2009,05,28,20,48,15.90
2009,05,28,20,49,15.90
2009,05,28,20,50,15.90
2009,05,28,20,51,15.80
2009,05,28,20,52,15.80
2009,05,28,20,53,15.80
2009,05,28,20,54,15.80
2009,05,28,20,55,15.80
2009,05,28,20,56,15.70
2009,05,28,20,57,15.70
2009,05,28,20,58,15.70
2009,05,28,20,59,15.70
2009,05,28,21,00,15.60
2009,05,28,21,01,15.60
2009,05,28,21,02,15.60
2009,05,28,21,03,15.50
2009,05,28,21,04,15.50
2009,05,28,21,05,15.50
2009,05,28,21,06,15.40
2009,05,28,21,07,15.40
2009,05,28,21,08,15.40
2009,05,28,21,09,15.40
2009,05,28,21,10,15.40
2009,05,28,21,11,15.40
2009,05,28,21,12,15.30
2009,05,28,21,13,15.30
2009,05,28,21,14,15.30
2009,05,28,21,15,15.20
2009,05,28,21,16,15.20
2009,05,28,21,17,15.20
2009,05,28,21,18,15.10
2009,05,28,21,19,15.10
2009,05,28,21,20,15.10
2009,05,28,21,21,15.10
2009,05,28,21,22,15.10
2009,05,28,21,23,15.00
2009,05,28,21,24,15.00
2009,05,28,21,25,15.00
2009,05,28,21,26,15.00
2009,05,28,21,27,15.00
2009,05,28,21,28,15.00
2009,05,28,21,29,15.00
2009,05,28,21,30,15.00
2009,05,28,21,31,15.00
2009,05,28,21,32,15.00
2009,05,28,21,33,15.00
2009,05,28,21,34,15.00
2009,05,28,21,35,15.00
2009,05,28,21,36,15.00
2009,05,28,21,37,15.00
2009,05,28,21,38,15.00
2009,05,28,21,39,14.90
2009,05,28,21,40,14.90
2009,05,28,21,41,14.80
2009,05,28,21,42,14.80
2009,05,28,21,43,14.70
2009,05,28,21,44,14.70
2009,05,28,21,45,14.70
2009,05,28,21,46,14.60
2009,05,28,21,47,14.60
2009,05,28,21,48,14.60
2009,05,28,21,49,14.60
2009,05,28,21,50,14.60
2009,05,28,21,51,14.60
2009,05,28,21,52,14.60
2009,05,28,21,53,14.60
2009,05,28,21,54,14.60
2009,05,28,21,55,14.60
2009,05,28,21,56,14.60
2009,05,28,21,57,14.50
2009,05,28,21,58,14.50
2009,05,28,21,59,14.40
2009,05,28,22,00,14.30
2009,05,28,22,01,14.30
2009,05,28,22,02,14.20
2009,05,28,22,03,14.10
2009,05,28,22,04,14.10
2009,05,28,22,05,14.10
2009,05,28,22,06,14.10
2009,05,28,22,07,14.00
2009,05,28,22,08,14.00
2009,05,28,22,09,14.00
2009,05,28,22,10,13.90
2009,05,28,22,11,13.90
2009,05,28,22,12,13.90
2009,05,28,22,13,13.90
2009,05,28,22,14,13.90
2009,05,28,22,15,13.80
2009,05,28,22,16,13.90
2009,05,28,22,17,13.90
2009,05,28,22,18,13.90
2009,05,28,22,19,13.90
2009,05,28,22,20,14.00
2009,05,28,22,21,14.00
2009,05,28,22,22,14.00
2009,05,28,22,23,13.90
2009,05,28,22,24,13.90
2009,05,28,22,25,13.90
2009,05,28,22,26,13.90
2009,05,28,22,27,13.90
2009,05,28,22,28,13.80
2009,05,28,22,29,13.80
2009,05,28,22,30,13.80
2009,05,28,22,31,13.80
2009,05,28,22,32,13.80
2009,05,28,22,33,13.80
2009,05,28,22,34,13.80
2009,05,28,22,35,13.80
2009,05,28,22,36,13.80
2009,05,28,22,37,13.80
2009,05,28,22,38,13.80
2009,05,28,22,39,13.80
2009,05,28,22,40,13.80
2009,05,28,22,41,13.80
2009,05,28,22,42,13.80
2009,05,28,22,43,13.80
2009,05,28,22,44,13.80
2009,05,28,22,45,13.80
2009,05,28,22,46,13.80
2009,05,28,22,47,13.80
2009,05,28,22,48,13.80
2009,05,28,22,49,13.80
2009,05,28,22,50,13.80
2009,05,28,22,51,13.80
2009,05,28,22,52,13.80
2009,05,28,22,53,13.80
2009,05,28,22,54,13.90
2009,05,28,22,55,13.90
2009,05,28,22,56,13.90
2009,05,28,22,57,13.90
2009,05,28,22,58,13.90
2009,05,28,22,59,13.80
2009,05,28,23,00,13.80
2009,05,28,23,01,13.80
2009,05,28,23,02,13.80
2009,05,28,23,03,13.80
2009,05,28,23,04,13.80
2009,05,28,23,05,13.80
2009,05,28,23,06,13.80
2009,05,28,23,07,13.80
2009,05,28,23,08,13.80
2009,05,28,23,09,13.70
2009,05,28,23,10,13.70
2009,05,28,23,11,13.70
2009,05,28,23,12,13.70
2009,05,28,23,13,13.70
2009,05,28,23,14,13.70
2009,05,28,23,15,13.60
2009,05,28,23,16,13.60
2009,05,28,23,17,13.60
2009,05,28,23,18,13.60
2009,05,28,23,19,13.60
2009,05,28,23,20,13.60
2009,05,28,23,21,13.60
2009,05,28,23,22,13.60
2009,05,28,23,23,13.60
2009,05,28,23,24,13.60
2009,05,28,23,25,13.60
2009,05,28,23,26,13.60
2009,05,28,23,27,13.60
2009,05,28,23,28,13.60
2009,05,28,23,29,13.60
2009,05,28,23,30,13.50
2009,05,28,23,31,13.50
2009,05,28,23,32,13.40
2009,05,28,23,33,13.40
2009,05,28,23,34,13.40
2009,05,28,23,35,13.40
2009,05,28,23,36,13.30
2009,05,28,23,37,13.30
2009,05,28,23,38,13.30
2009,05,28,23,39,13.20
2009,05,28,23,40,13.20
2009,05,28,23,41,13.10
2009,05,28,23,42,13.10
2009,05,28,23,43,13.10
2009,05,28,23,44,13.00
2009,05,28,23,45,13.00
2009,05,28,23,46,13.00
2009,05,28,23,47,13.00
2009,05,28,23,48,13.00
2009,05,28,23,49,13.00
2009,05,28,23,50,13.00
2009,05,28,23,51,12.90
2009,05,28,23,52,12.90
2009,05,28,23,53,12.90
2009,05,28,23,54,12.90
2009,05,28,23,55,12.90
2009,05,28,23,56,12.90
2009,05,28,23,57,12.90
2009,05,28,23,58,12.90
2009,05,28,23,59,12.90
